Regional Weather Roundup
Issued by NWS

Home | Current Version | Previous Version | Text Only | Print | Product List | Glossary On
Versions: 1 2 3 4 5 6 7 8 9 10 11 12 13 14 15 16 17 18 19 20 21 22 23 24 25 26 27 28 29 30 31 32 33 34 35 36 37 38 39 40 41 42 43 44 45 46 47 48 49 50
000
ASUS45 KSLC 260010
RWRUT

UTAH REGIONAL WEATHER ROUNDUP
NATIONAL WEATHER SERVICE SALT LAKE CITY UT
500 PM MST SUN JAN 25 2015

UTZ001>011-023>025-260100-

NORTHERN UTAH

CITY           SKY/WX    TMP DP  RH WIND       PRES   REMARKS
BRIGHAM CITY   PTCLDY    46  29  53 SW5       30.43S
HILL AFB       CLEAR     46  24  42 NW6       30.41S
LOGAN          CLEAR     42  33  70 W3        30.42S
OGDEN          CLEAR     46  31  55 NW5       30.41S
PROVO AIRPORT  NOT AVBL
SALT LAKE CITY PTCLDY    47  33  58 NW8       30.41S
VERNAL         CLEAR     40  22  48 CALM      30.35R
WENDOVER       CLEAR     43  30  61 CALM      30.42S
HEBER CITY     CLEAR     41  32  70 CALM      30.39S
WEST JORDAN    CLEAR     45  36  70 NW13      30.41S

$$

UTZ012>022-026-027-260100-

SOUTHERN/CENTRAL UTAH

CITY           SKY/WX    TMP DP  RH WIND       PRES   REMARKS
BLANDING       CLEAR     56  24  29 NE6       30.35S
BRYCE CANYON   CLEAR     48  27  44 NE13      30.36R
CEDAR CITY     CLEAR     53  31  42 N7        30.32R
DELTA          CLEAR     51  33  50 CALM      30.39S
MILFORD        CLEAR     50  33  52 N20       30.34F
MOAB/CYNLANDS  CLEAR     48  20  32 NW3       30.31F
PRICE          CLEAR     48  22  35 E7        30.33R
ST GEORGE      CLEAR     64  30  27 CALM      30.23S
KANAB          CLEAR     57  23  26 NE12      30.30S

$$

REGIONAL REPORTS     COLORADO/ARIZONA

CITY           SKY/WX    TMP DP  RH WIND       PRES   REMARKS
CRAIG, CO      CLEAR     35  27  72 CALM      30.36R
GRAND JUNCTION MOCLDY    44  24  45 CALM      30.33R
RIFLE          PTCLDY    44  25  47 W8        30.33R
MONTROSE       PTCLDY    44  20  38 W5        30.35R
CORTEZ         CLEAR     49  24  37 S10       30.25S
PAGE, AZ       NOT AVBL
GRAND CANYON   CLEAR     50  21  32 E10       30.32S
KINGMAN        CLEAR     65  25  22 N13       30.15S
FLAGSTAFF      CLEAR     50  20  30 E8        30.32R

$$

REGIONAL REPORTS    NEVADA/IDAHO/WYOMING

CITY           SKY/WX    TMP DP  RH WIND       PRES   REMARKS
LAS VEGAS, NV  PTCLDY    73  31  21 W3        30.11F
ELY            CLEAR     56  31  38 N12       30.36F
ELKO           CLEAR     56  35  45 CALM      30.36R
POCATELLO, ID  PTCLDY    36  32  85 NE10      30.43S WCI  28
BURLEY         CLEAR     45  34  65 NE8       30.38S
EVANSTON, WY   CLEAR     45  31  58 SW3       30.42R
ROCK SPRINGS   CLEAR     44  27  51 W22G28    30.33R
KEMMERER       CLEAR     36  32  87 N12       30.43R WCI  27

$$


USA.gov is the U.S. government's official web portal to all federal, state and local government web resources and services.